| time (UTC) | temp F | wind direction | speed MPH | gust MPH | rain 1hr in | rain 24hr in | rain mn in | humidity % | barometer mb |
| 20260506094505 | 54 | 6 | 0.0 | 0.0 | 0.00 | 0.00 | 0.00 | 92 | 1017.9 |
| 20260506094003 | 54 | 1 | 2.0 | 2.0 | 0.00 | 0.00 | 0.00 | 92 | 1017.8 |
| 20260506093501 | 54 | 31 | 1.0 | 1.0 | 0.00 | 0.00 | 0.00 | 92 | 1017.8 |
| 20260506092958 | 54 | 2 | 0.0 | 0.0 | 0.00 | 0.00 | 0.00 | 92 | 1017.7 |
| 20260506092456 | 53 | 253 | 0.0 | 0.0 | 0.00 | 0.00 | 0.00 | 92 | 1017.8 |
| 20260506091952 | 53 | 331 | 0.0 | 0.0 | 0.00 | 0.00 | 0.00 | 92 | 1017.6 |
| 20260506091450 | 53 | 267 | 0.0 | 0.0 | 0.00 | 0.00 | 0.00 | 92 | 1017.3 |
| 20260506090947 | 54 | 293 | 0.0 | 0.0 | 0.00 | 0.00 | 0.00 | 92 | 1017.5 |
| 20260506090445 | 54 | 296 | 4.0 | 6.0 | 0.00 | 0.00 | 0.00 | 92 | 1017.3 |
| 20260506085941 | 54 | 296 | 1.0 | 2.0 | 0.00 | 0.00 | 0.00 | 92 | 1017.2 |
| 20260506085438 | 53 | 305 | 3.0 | 5.0 | 0.00 | 0.00 | 0.00 | 92 | 1017.5 |
| 20260506084935 | 53 | 310 | 3.0 | 3.0 | 0.00 | 0.00 | 0.00 | 92 | 1017.6 |
| 20260506084432 | 53 | 289 | 0.0 | 0.0 | 0.00 | 0.00 | 0.00 | 91 | 1017.6 |
| 20260506083927 | 54 | 314 | 0.0 | 0.0 | 0.00 | 0.00 | 0.00 | 91 | 1017.6 |
| 20260506083425 | 54 | 40 | 0.0 | 0.0 | 0.00 | 0.00 | 0.00 | 91 | 1017.7 |
| 20260506082922 | 54 | 46 | 0.0 | 0.0 | 0.00 | 0.00 | 0.00 | 91 | 1017.7 |
| 20260506082419 | 55 | 354 | 0.0 | 0.0 | 0.00 | 0.00 | 0.00 | 90 | 1018.2 |
| 20260506081915 | 55 | 30 | 1.0 | 2.0 | 0.00 | 0.00 | 0.00 | 90 | 1018.0 |
| 20260506081414 | 55 | 346 | 0.0 | 0.0 | 0.00 | 0.00 | 0.00 | 90 | 1018.3 |
| 20260506080910 | 55 | 350 | 1.0 | 2.0 | 0.00 | 0.00 | 0.00 | 90 | 1018.5 |
| 20260506080407 | 55 | 313 | 2.0 | 2.0 | 0.00 | 0.00 | 0.00 | 90 | 1018.3 |
| 20260506073351 | 55 | 33 | 0.0 | 0.0 | 0.00 | 0.00 | 0.00 | 91 | 1017.9 |
| 20260506072848 | 55 | 9 | 0.0 | 0.0 | 0.00 | 0.00 | 0.00 | 91 | 1017.7 |
| 20260506072345 | 55 | 32 | 0.0 | 0.0 | 0.00 | 0.00 | 0.00 | 92 | 1018.0 |
| 20260506071843 | 55 | 7 | 0.0 | 0.0 | 0.00 | 0.00 | 0.00 | 92 | 1017.6 |
| 20260506071341 | 55 | 17 | 0.0 | 0.0 | 0.00 | 0.00 | 0.00 | 92 | 1017.6 |
| 20260506070837 | 54 | 5 | 0.0 | 0.0 | 0.00 | 0.00 | 0.00 | 93 | 1017.4 |
| 20260506070335 | 54 | 27 | 0.0 | 0.0 | 0.00 | 0.00 | 0.00 | 93 | 1017.4 |
| 20260506062312 | 54 | 356 | 0.0 | 0.0 | 0.00 | 0.00 | 0.00 | 92 | 1016.9 |
| 20260506061808 | 54 | 356 | 0.0 | 0.0 | 0.00 | 0.00 | 0.00 | 91 | 1016.9 |
| 20260506061305 | 54 | 352 | 0.0 | 0.0 | 0.00 | 0.00 | 0.00 | 91 | 1016.7 |
| 20260506060803 | 55 | 351 | 0.0 | 0.0 | 0.00 | 0.00 | 0.00 | 91 | 1016.8 |
| 20260506060301 | 55 | 337 | 0.0 | 0.0 | 0.00 | 0.00 | 0.00 | 91 | 1016.8 |
| 20260506051232 | 56 | 302 | 0.0 | 0.0 | 0.00 | 0.00 | 0.00 | 88 | 1016.5 |
| 20260506050730 | 56 | 290 | 0.0 | 0.0 | 0.00 | 0.00 | 0.00 | 88 | 1016.5 |
| 20260506050227 | 56 | 187 | 0.0 | 0.0 | 0.00 | 0.00 | 0.00 | 87 | 1016.5 |
| 20260506044718 | 57 | 316 | 0.0 | 0.0 | 0.00 | 0.00 | 0.00 | 86 | 1016.4 |
| 20260506044215 | 57 | 152 | 0.0 | 0.0 | 0.00 | 0.00 | 0.00 | 86 | 1016.2 |
| 20260506043712 | 57 | 239 | 0.0 | 0.0 | 0.00 | 0.00 | 0.00 | 86 | 1016.5 |
| 20260506043210 | 57 | 129 | 0.0 | 0.0 | 0.00 | 0.00 | 0.00 | 86 | 1016.1 |
| 20260506042709 | 57 | 111 | 0.0 | 0.0 | 0.00 | 0.00 | 0.00 | 85 | 1016.2 |
| 20260506042207 | 57 | 304 | 0.0 | 0.0 | 0.00 | 0.00 | 0.00 | 85 | 1016.1 |
| 20260506041705 | 57 | 264 | 0.0 | 0.0 | 0.00 | 0.00 | 0.00 | 84 | 1015.9 |
| 20260506041201 | 57 | 83 | 0.0 | 0.0 | 0.00 | 0.00 | 0.00 | 84 | 1015.8 |
| 20260506040659 | 57 | 15 | 0.0 | 0.0 | 0.00 | 0.00 | 0.00 | 83 | 1015.8 |
| 20260506040155 | 58 | 138 | 0.0 | 0.0 | 0.00 | 0.00 | 0.00 | 82 | 1016.0 |
| 20260506035652 | 58 | 112 | 0.0 | 0.0 | 0.00 | 0.00 | 0.00 | 82 | 1015.6 |
| 20260506035149 | 58 | 109 | 0.0 | 0.0 | 0.00 | 0.00 | 0.00 | 81 | 1015.5 |
| 20260506034646 | 58 | 197 | 0.0 | 0.0 | 0.00 | 0.00 | 0.00 | 81 | 1015.5 |
| 20260506034143 | 59 | 289 | 0.0 | 0.0 | 0.00 | 0.00 | 0.00 | 80 | 1015.2 |
| 20260506033641 | 59 | 179 | 0.0 | 0.0 | 0.00 | 0.00 | 0.00 | 79 | 1015.2 |
| 20260506033137 | 59 | 118 | 0.0 | 0.0 | 0.00 | 0.00 | 0.00 | 79 | 1015.3 |
| 20260506032635 | 59 | 143 | 0.0 | 0.0 | 0.00 | 0.00 | 0.00 | 79 | 1015.3 |
| 20260506032131 | 59 | 143 | 0.0 | 0.0 | 0.00 | 0.00 | 0.00 | 78 | 1015.2 |
| 20260506031628 | 60 | 273 | 0.0 | 0.0 | 0.00 | 0.00 | 0.00 | 78 | 1015.1 |
| 20260506031125 | 60 | 281 | 0.0 | 1.0 | 0.00 | 0.00 | 0.00 | 77 | 1014.9 |
| 20260506030624 | 61 | 5 | 0.0 | 1.0 | 0.00 | 0.00 | 0.00 | 76 | 1015.0 |
| 20260506030121 | 61 | 240 | 0.0 | 0.0 | 0.00 | 0.00 | 0.00 | 75 | 1014.9 |
| 20260506025617 | 62 | 156 | 0.0 | 0.0 | 0.00 | 0.00 | 0.00 | 75 | 1014.9 |
| 20260506025113 | 62 | 77 | 0.0 | 0.0 | 0.00 | 0.00 | 0.00 | 74 | 1014.6 |
| 20260506024611 | 63 | 40 | 0.0 | 1.0 | 0.00 | 0.00 | 0.00 | 72 | 1014.8 |
| 20260506024107 | 63 | 2 | 0.0 | 0.0 | 0.00 | 0.00 | 0.00 | 72 | 1014.6 |
| 20260506023603 | 64 | 332 | 0.0 | 0.0 | 0.00 | 0.00 | 0.00 | 71 | 1014.7 |
| 20260506023101 | 64 | 336 | 1.0 | 1.0 | 0.00 | 0.00 | 0.00 | 70 | 1014.6 |
| 20260506022558 | 64 | 34 | 0.0 | 0.0 | 0.00 | 0.00 | 0.00 | 69 | 1014.6 |
| 20260506022056 | 65 | 358 | 0.0 | 2.0 | 0.00 | 0.00 | 0.00 | 69 | 1014.7 |
| 20260506021553 | 65 | 263 | 0.0 | 0.0 | 0.00 | 0.00 | 0.00 | 68 | 1014.6 |
| 20260506021050 | 65 | 249 | 0.0 | 0.0 | 0.00 | 0.00 | 0.00 | 68 | 1014.4 |
| 20260506020547 | 65 | 24 | 0.0 | 0.0 | 0.00 | 0.00 | 0.00 | 67 | 1014.3 |
| 20260506020045 | 66 | 328 | 0.0 | 0.0 | 0.00 | 0.00 | 0.00 | 68 | 1014.5 |
| 20260506015542 | 66 | 353 | 0.0 | 0.0 | 0.00 | 0.00 | 0.00 | 67 | 1014.5 |
| 20260506015039 | 66 | 259 | 0.0 | 0.0 | 0.00 | 0.00 | 0.00 | 66 | 1014.3 |
| 20260506014536 | 66 | 224 | 0.0 | 1.0 | 0.00 | 0.00 | 0.00 | 65 | 1014.4 |
| 20260506014032 | 67 | 197 | 1.0 | 1.0 | 0.00 | 0.00 | 0.00 | 65 | 1014.6 |
| 20260506013531 | 68 | 291 | 0.0 | 0.0 | 0.00 | 0.00 | 0.00 | 64 | 1014.3 |
| 20260506013027 | 68 | 273 | 0.0 | 0.0 | 0.00 | 0.00 | 0.00 | 65 | 1014.4 |
| 20260506012523 | 67 | 0 | 0.0 | 1.0 | 0.00 | 0.00 | 0.00 | 65 | 1014.5 |
| 20260506012020 | 67 | 267 | 0.0 | 0.0 | 0.00 | 0.00 | 0.00 | 66 | 1014.6 |
| 20260506011518 | 66 | 290 | 2.0 | 2.0 | 0.00 | 0.00 | 0.00 | 66 | 1014.4 |
| 20260506011014 | 67 | 2 | 0.0 | 0.0 | 0.00 | 0.00 | 0.00 | 66 | 1014.7 |
| 20260506010513 | 68 | 233 | 1.0 | 1.0 | 0.00 | 0.00 | 0.00 | 62 | 1014.5 |
| 20260506010009 | 68 | 289 | 3.0 | 5.0 | 0.00 | 0.00 | 0.00 | 62 | 1014.6 |
| 20260506005507 | 68 | 83 | 2.0 | 3.0 | 0.00 | 0.00 | 0.00 | 63 | 1014.5 |
| 20260506005002 | 69 | 296 | 0.0 | 0.0 | 0.00 | 0.00 | 0.00 | 62 | 1014.6 |
| 20260506004500 | 69 | 210 | 2.0 | 5.0 | 0.00 | 0.00 | 0.00 | 64 | 1014.4 |
| 20260506003956 | 67 | 290 | 3.0 | 5.0 | 0.00 | 0.00 | 0.00 | 66 | 1014.6 |
| 20260506003452 | 68 | 280 | 6.0 | 7.0 | 0.00 | 0.00 | 0.00 | 63 | 1014.6 |
| 20260506002948 | 69 | 299 | 1.0 | 2.0 | 0.00 | 0.00 | 0.00 | 64 | 1014.6 |
| 20260506002445 | 68 | 307 | 2.0 | 3.0 | 0.00 | 0.00 | 0.00 | 64 | 1014.5 |
| 20260506001940 | 68 | 295 | 0.0 | 0.0 | 0.00 | 0.00 | 0.00 | 64 | 1014.5 |
| 20260506001438 | 69 | 284 | 5.0 | 6.0 | 0.00 | 0.00 | 0.00 | 63 | 1014.6 |
| 20260506000935 | 68 | 39 | 1.0 | 1.0 | 0.00 | 0.00 | 0.00 | 63 | 1014.6 |
| 20260506000432 | 69 | 321 | 0.0 | 0.0 | 0.00 | 0.00 | 0.00 | 64 | 1014.5 |
| 20260505235929 | 68 | 326 | 1.0 | 3.0 | 0.00 | 0.00 | 0.00 | 63 | 1014.5 |
| 20260505235427 | 69 | 336 | 2.0 | 6.0 | 0.00 | 0.00 | 0.00 | 61 | 1014.4 |
| 20260505234924 | 69 | 307 | 3.0 | 5.0 | 0.00 | 0.00 | 0.00 | 63 | 1014.3 |
| 20260505234421 | 69 | 327 | 0.0 | 1.0 | 0.00 | 0.00 | 0.00 | 63 | 1014.3 |
| 20260505233918 | 68 | 238 | 2.0 | 6.0 | 0.00 | 0.00 | 0.00 | 63 | 1014.4 |
| 20260505233416 | 69 | 265 | 6.0 | 9.0 | 0.00 | 0.00 | 0.00 | 63 | 1014.3 |
| 20260505232913 | 69 | 291 | 1.0 | 2.0 | 0.00 | 0.00 | 0.00 | 62 | 1014.4 |
| 20260505232411 | 68 | 288 | 0.0 | 0.0 | 0.00 | 0.00 | 0.00 | 64 | 1014.6 |
| 20260505231907 | 67 | 272 | 3.0 | 5.0 | 0.00 | 0.00 | 0.00 | 66 | 1014.4 |
| 20260505231405 | 68 | 326 | 0.0 | 2.0 | 0.00 | 0.00 | 0.00 | 62 | 1014.5 |
| 20260505230903 | 68 | 50 | 2.0 | 3.0 | 0.00 | 0.00 | 0.00 | 65 | 1014.6 |
| 20260505230400 | 69 | 299 | 1.0 | 3.0 | 0.00 | 0.00 | 0.00 | 63 | 1014.5 |
| 20260505225856 | 68 | 108 | 0.0 | 0.0 | 0.00 | 0.00 | 0.00 | 64 | 1014.6 |
| 20260505225354 | 68 | 347 | 0.0 | 2.0 | 0.00 | 0.00 | 0.00 | 65 | 1014.5 |
| 20260505224849 | 68 | 354 | 2.0 | 3.0 | 0.00 | 0.00 | 0.00 | 63 | 1014.5 |
| 20260505224347 | 69 | 302 | 5.0 | 7.0 | 0.00 | 0.00 | 0.00 | 65 | 1014.5 |
| 20260505223843 | 68 | 304 | 3.0 | 5.0 | 0.00 | 0.00 | 0.00 | 66 | 1014.7 |
| 20260505223340 | 67 | 239 | 3.0 | 8.0 | 0.00 | 0.00 | 0.00 | 65 | 1014.7 |
| 20260505222836 | 67 | 232 | 1.0 | 2.0 | 0.00 | 0.00 | 0.00 | 67 | 1014.9 |
| 20260505222332 | 66 | 261 | 5.0 | 9.0 | 0.00 | 0.00 | 0.00 | 67 | 1014.5 |
| 20260505221830 | 66 | 251 | 5.0 | 8.0 | 0.00 | 0.00 | 0.00 | 67 | 1014.6 |
| 20260505221326 | 66 | 247 | 6.0 | 7.0 | 0.00 | 0.00 | 0.00 | 67 | 1014.7 |
| 20260505220823 | 66 | 300 | 5.0 | 8.0 | 0.00 | 0.00 | 0.00 | 68 | 1014.7 |
| 20260505220320 | 67 | 309 | 3.0 | 5.0 | 0.00 | 0.00 | 0.00 | 66 | 1014.7 |
| 20260505215819 | 66 | 301 | 5.0 | 6.0 | 0.00 | 0.00 | 0.00 | 66 | 1014.8 |
| 20260505215316 | 66 | 9 | 1.0 | 2.0 | 0.00 | 0.00 | 0.00 | 66 | 1014.7 |
| 20260505214814 | 66 | 34 | 3.0 | 6.0 | 0.00 | 0.00 | 0.00 | 66 | 1014.6 |
| 20260505214311 | 67 | 240 | 5.0 | 8.0 | 0.00 | 0.00 | 0.00 | 66 | 1014.7 |
| 20260505213808 | 67 | 159 | 2.0 | 2.0 | 0.00 | 0.00 | 0.00 | 65 | 1014.8 |
| 20260505213306 | 66 | 33 | 0.0 | 0.0 | 0.00 | 0.00 | 0.00 | 66 | 1014.8 |
| 20260505212801 | 66 | 271 | 3.0 | 6.0 | 0.00 | 0.00 | 0.00 | 67 | 1014.7 |
| 20260505212259 | 66 | 278 | 5.0 | 6.0 | 0.00 | 0.00 | 0.00 | 67 | 1014.9 |
| 20260505211755 | 66 | 262 | 2.0 | 3.0 | 0.00 | 0.00 | 0.00 | 67 | 1014.9 |
| 20260505211253 | 66 | 299 | 3.0 | 7.0 | 0.00 | 0.00 | 0.00 | 67 | 1014.9 |
| 20260505210749 | 67 | 294 | 2.0 | 5.0 | 0.00 | 0.00 | 0.00 | 65 | 1014.8 |
| 20260505210246 | 66 | 277 | 2.0 | 3.0 | 0.00 | 0.00 | 0.00 | 67 | 1014.8 |
| 20260505205743 | 66 | 315 | 7.0 | 8.0 | 0.00 | 0.00 | 0.00 | 66 | 1015.0 |
| 20260505205242 | 65 | 305 | 2.0 | 3.0 | 0.00 | 0.00 | 0.00 | 68 | 1014.9 |
| 20260505204738 | 65 | 294 | 5.0 | 6.0 | 0.00 | 0.00 | 0.00 | 68 | 1015.0 |
| 20260505204236 | 66 | 291 | 1.0 | 5.0 | 0.00 | 0.00 | 0.00 | 65 | 1015.1 |
| 20260505203732 | 65 | 291 | 4.0 | 6.0 | 0.00 | 0.00 | 0.00 | 68 | 1015.0 |
| 20260505203230 | 65 | 10 | 3.0 | 6.0 | 0.00 | 0.00 | 0.00 | 67 | 1015.2 |
| 20260505202725 | 65 | 334 | 0.0 | 1.0 | 0.00 | 0.00 | 0.00 | 66 | 1015.4 |
| 20260505202221 | 65 | 283 | 4.0 | 8.0 | 0.00 | 0.00 | 0.00 | 68 | 1015.2 |
| 20260505201718 | 65 | 290 | 7.0 | 8.0 | 0.00 | 0.00 | 0.00 | 67 | 1015.0 |
| 20260505201216 | 65 | 182 | 0.0 | 1.0 | 0.00 | 0.00 | 0.00 | 65 | 1015.2 |
| 20260505200714 | 66 | 307 | 0.0 | 1.0 | 0.00 | 0.00 | 0.00 | 66 | 1015.3 |
| 20260505200211 | 65 | 317 | 8.0 | 9.0 | 0.00 | 0.00 | 0.00 | 67 | 1015.2 |
| 20260505195706 | 65 | 57 | 0.0 | 1.0 | 0.00 | 0.00 | 0.00 | 67 | 1015.2 |
| 20260505195204 | 64 | 43 | 4.0 | 5.0 | 0.00 | 0.00 | 0.00 | 67 | 1015.4 |
| 20260505194701 | 63 | 4 | 0.0 | 0.0 | 0.00 | 0.00 | 0.00 | 68 | 1015.5 |
| 20260505194157 | 63 | 18 | 0.0 | 1.0 | 0.00 | 0.00 | 0.00 | 69 | 1015.3 |
| 20260505193653 | 64 | 335 | 1.0 | 2.0 | 0.00 | 0.00 | 0.00 | 70 | 1015.5 |
| 20260505193151 | 63 | 28 | 1.0 | 5.0 | 0.00 | 0.00 | 0.00 | 70 | 1015.4 |
| 20260505192649 | 63 | 264 | 3.0 | 5.0 | 0.00 | 0.00 | 0.00 | 71 | 1015.5 |
| 20260505192147 | 63 | 315 | 3.0 | 3.0 | 0.00 | 0.00 | 0.00 | 71 | 1015.4 |
| 20260505191645 | 63 | 3 | 0.0 | 0.0 | 0.00 | 0.00 | 0.00 | 69 | 1015.4 |
| 20260505191143 | 63 | 305 | 6.0 | 7.0 | 0.00 | 0.00 | 0.00 | 70 | 1015.5 |
| 20260505190638 | 63 | 0 | 0.0 | 0.0 | 0.00 | 0.00 | 0.00 | 70 | 1015.5 |
| 20260505190133 | 63 | 307 | 3.0 | 6.0 | 0.00 | 0.00 | 0.00 | 69 | 1015.4 |
| 20260505185630 | 62 | 164 | 1.0 | 1.0 | 0.00 | 0.00 | 0.00 | 70 | 1015.4 |
| 20260505185126 | 63 | 337 | 2.0 | 3.0 | 0.00 | 0.00 | 0.00 | 70 | 1015.4 |
| 20260505184623 | 61 | 9 | 4.0 | 6.0 | 0.00 | 0.00 | 0.00 | 70 | 1015.6 |
| 20260505184120 | 62 | 292 | 9.0 | 11.0 | 0.00 | 0.00 | 0.00 | 70 | 1015.2 |
| 20260505183616 | 63 | 280 | 4.0 | 6.0 | 0.00 | 0.00 | 0.00 | 70 | 1015.3 |
| 20260505183114 | 63 | 320 | 3.0 | 6.0 | 0.00 | 0.00 | 0.00 | 71 | 1015.4 |
| 20260505182610 | 63 | 348 | 3.0 | 5.0 | 0.00 | 0.00 | 0.00 | 69 | 1015.4 |
| 20260505182107 | 62 | 281 | 7.0 | 9.0 | 0.00 | 0.00 | 0.00 | 70 | 1015.4 |
| 20260505181604 | 62 | 271 | 8.0 | 9.0 | 0.00 | 0.00 | 0.00 | 71 | 1015.3 |
| 20260505181101 | 62 | 313 | 5.0 | 6.0 | 0.00 | 0.00 | 0.00 | 72 | 1015.2 |
| 20260505180556 | 61 | 286 | 9.0 | 10.0 | 0.00 | 0.00 | 0.00 | 73 | 1015.3 |
| 20260505180055 | 61 | 341 | 4.0 | 7.0 | 0.00 | 0.00 | 0.00 | 74 | 1015.3 |
| 20260505175550 | 62 | 323 | 5.0 | 7.0 | 0.00 | 0.00 | 0.00 | 73 | 1015.2 |
| 20260505175047 | 61 | 273 | 5.0 | 7.0 | 0.00 | 0.00 | 0.00 | 75 | 1015.1 |
| 20260505174544 | 60 | 289 | 6.0 | 8.0 | 0.00 | 0.00 | 0.00 | 77 | 1015.3 |
| 20260505174039 | 60 | 283 | 5.0 | 6.0 | 0.00 | 0.00 | 0.00 | 76 | 1015.1 |
| 20260505173536 | 60 | 340 | 1.0 | 1.0 | 0.00 | 0.00 | 0.00 | 78 | 1015.1 |
| 20260505173033 | 59 | 319 | 1.0 | 1.0 | 0.00 | 0.00 | 0.00 | 79 | 1014.8 |
| 20260505172531 | 58 | 269 | 3.0 | 5.0 | 0.00 | 0.00 | 0.00 | 79 | 1014.9 |
| 20260505172027 | 58 | 64 | 1.0 | 2.0 | 0.00 | 0.00 | 0.00 | 80 | 1014.8 |
| 20260505171522 | 58 | 279 | 2.0 | 3.0 | 0.00 | 0.00 | 0.00 | 80 | 1014.9 |
| 20260505171020 | 58 | 342 | 1.0 | 1.0 | 0.00 | 0.00 | 0.00 | 80 | 1014.9 |
| 20260505170516 | 58 | 323 | 1.0 | 5.0 | 0.00 | 0.00 | 0.00 | 79 | 1015.0 |
| 20260505170012 | 58 | 84 | 5.0 | 8.0 | 0.00 | 0.00 | 0.00 | 79 | 1015.1 |
| 20260505165508 | 58 | 235 | 1.0 | 2.0 | 0.00 | 0.00 | 0.00 | 79 | 1015.2 |
| 20260505165004 | 59 | 307 | 5.0 | 8.0 | 0.00 | 0.00 | 0.00 | 79 | 1014.9 |
| 20260505164500 | 59 | 301 | 2.0 | 3.0 | 0.00 | 0.00 | 0.00 | 78 | 1014.9 |
| 20260505163958 | 58 | 111 | 0.0 | 1.0 | 0.00 | 0.00 | 0.00 | 81 | 1015.0 |
| 20260505163456 | 58 | 265 | 5.0 | 6.0 | 0.00 | 0.00 | 0.00 | 82 | 1014.8 |
| 20260505162956 | 58 | 307 | 1.0 | 2.0 | 0.00 | 0.00 | 0.00 | 82 | 1014.9 |
| 20260505162451 | 58 | 312 | 2.0 | 5.0 | 0.00 | 0.00 | 0.00 | 83 | 1014.9 |
| 20260505161947 | 58 | 284 | 5.0 | 7.0 | 0.00 | 0.00 | 0.00 | 82 | 1014.8 |
| 20260505161439 | 58 | 286 | 2.0 | 5.0 | 0.00 | 0.00 | 0.00 | 82 | 1014.6 |
| 20260505160936 | 57 | 268 | 0.0 | 0.0 | 0.00 | 0.00 | 0.00 | 83 | 1014.7 |
| 20260505160435 | 58 | 288 | 2.0 | 2.0 | 0.00 | 0.00 | 0.00 | 82 | 1014.8 |
| 20260505152910 | 55 | 296 | 4.0 | 5.0 | 0.00 | 0.00 | 0.00 | 86 | 1014.6 |
| 20260505152407 | 55 | 288 | 2.0 | 2.0 | 0.00 | 0.00 | 0.00 | 87 | 1014.7 |
| 20260505151901 | 55 | 291 | 3.0 | 3.0 | 0.00 | 0.00 | 0.00 | 87 | 1014.4 |
| 20260505151358 | 55 | 293 | 2.0 | 3.0 | 0.00 | 0.00 | 0.00 | 88 | 1014.5 |
| 20260505150855 | 55 | 282 | 4.0 | 5.0 | 0.00 | 0.00 | 0.00 | 88 | 1014.6 |
| 20260505150352 | 55 | 293 | 2.0 | 3.0 | 0.00 | 0.00 | 0.00 | 88 | 1014.6 |
| 20260505140317 | 53 | 298 | 2.0 | 3.0 | 0.00 | 0.00 | 0.00 | 91 | 1014.0 |
| 20260505130240 | 53 | 46 | 0.0 | 1.0 | 0.00 | 0.00 | 0.00 | 90 | 1013.7 |
| 20260505124731 | 53 | 323 | 2.0 | 2.0 | 0.00 | 0.00 | 0.00 | 89 | 1013.9 |
| 20260505124228 | 53 | 265 | 2.0 | 3.0 | 0.00 | 0.00 | 0.00 | 89 | 1013.7 |
| 20260505123723 | 53 | 286 | 3.0 | 3.0 | 0.00 | 0.00 | 0.00 | 90 | 1013.7 |
| 20260505123220 | 53 | 287 | 3.0 | 3.0 | 0.00 | 0.00 | 0.00 | 90 | 1013.6 |
| 20260505122717 | 53 | 306 | 4.0 | 6.0 | 0.00 | 0.00 | 0.00 | 90 | 1013.6 |
| 20260505122214 | 53 | 312 | 2.0 | 2.0 | 0.00 | 0.00 | 0.00 | 90 | 1013.7 |
| 20260505121710 | 53 | 303 | 2.0 | 3.0 | 0.00 | 0.00 | 0.00 | 90 | 1013.6 |
| 20260505121207 | 53 | 287 | 2.0 | 3.0 | 0.00 | 0.00 | 0.00 | 91 | 1013.7 |
| 20260505120703 | 53 | 264 | 1.0 | 2.0 | 0.00 | 0.00 | 0.00 | 91 | 1013.6 |
| 20260505120159 | 53 | 74 | 0.0 | 0.0 | 0.00 | 0.00 | 0.00 | 91 | 1013.5 |
| 20260505115653 | 53 | 52 | 0.0 | 0.0 | 0.00 | 0.00 | 0.00 | 91 | 1013.7 |
| 20260505115151 | 53 | 38 | 0.0 | 1.0 | 0.00 | 0.00 | 0.00 | 91 | 1013.6 |
| 20260505114648 | 53 | 49 | 0.0 | 0.0 | 0.00 | 0.00 | 0.00 | 91 | 1013.5 |
| 20260505114144 | 53 | 59 | 1.0 | 2.0 | 0.00 | 0.00 | 0.00 | 91 | 1013.4 |
| 20260505113641 | 52 | 305 | 2.0 | 3.0 | 0.00 | 0.00 | 0.00 | 91 | 1013.6 |
| 20260505113137 | 52 | 18 | 1.0 | 1.0 | 0.00 | 0.00 | 0.00 | 91 | 1013.6 |
| 20260505112633 | 52 | 36 | 1.0 | 1.0 | 0.00 | 0.00 | 0.00 | 91 | 1013.8 |
| 20260505112132 | 52 | 22 | 1.0 | 1.0 | 0.00 | 0.00 | 0.00 | 91 | 1013.8 |
| 20260505111625 | 52 | 357 | 2.0 | 3.0 | 0.00 | 0.00 | 0.00 | 91 | 1013.8 |
| 20260505111122 | 52 | 9 | 0.0 | 0.0 | 0.00 | 0.00 | 0.00 | 91 | 1013.9 |
| 20260505110618 | 52 | 13 | 1.0 | 1.0 | 0.00 | 0.00 | 0.00 | 91 | 1013.9 |
| 20260505110115 | 52 | 303 | 1.0 | 1.0 | 0.00 | 0.00 | 0.00 | 91 | 1013.9 |
| 20260505102051 | 53 | 6 | 2.0 | 3.0 | 0.00 | 0.00 | 0.00 | 90 | 1014.0 |
| 20260505101549 | 53 | 350 | 1.0 | 2.0 | 0.00 | 0.00 | 0.00 | 90 | 1013.9 |
| 20260505101045 | 53 | 9 | 0.0 | 0.0 | 0.00 | 0.00 | 0.00 | 90 | 1013.9 |
| 20260505100542 | 53 | 31 | 1.0 | 2.0 | 0.00 | 0.00 | 0.00 | 90 | 1013.9 |
| 20260505100039 | 53 | 355 | 3.0 | 5.0 | 0.00 | 0.00 | 0.00 | 89 | 1013.9 |
| 20260505095535 | 53 | 83 | 2.0 | 2.0 | 0.00 | 0.00 | 0.00 | 89 | 1013.9 |
| 20260505095031 | 53 | 11 | 3.0 | 5.0 | 0.00 | 0.00 | 0.00 | 89 | 1014.0 |